Location: Wanzleben
(52.0609°N, 11.4408°E)
Time: 11:43:34
(UTC+00:00)

Cosmos 2263 Rocket - Pass Details

Date: 26 January 2021
Orbit: 825 x 847 km, 71.0° (Epoch: 24 February)

Event Time Altitude Azimuth Distance (km) Brightness Sun altitude
Rises 17:19:37 0° 251° (WSW) 3,402 7.3 -13.4°
Reaches altitude 10° 17:22:27 10° 264° (W) 2,467 6.1 -13.8°
Maximum altitude 17:27:11 27° 321° (NW) 1,579 3.9 -14.6°
Drops below altitude 10° 17:31:57 10° 18° (NNE) 2,464 4.3 -15.3°
Enters shadow 17:33:14 - 25° (NNE) 2,877 4.6 -15.5°
